Time,TemperatureF,DewpointF,PressureIn,WindDirection,WindDirectionDegrees,WindSpeedMPH,WindSpeedGustMPH,Humidity,HourlyPrecipIn,Conditions,Clouds,dailyrainin,SoftwareType,DateUTC
2013-08-24 00:00:00,62.7,61.8,30.09,North,0,0.0,0.0,97,0.00,,---,0.00,VWS V14.01,2013-08-24 04:00:00,
2013-08-24 00:15:00,62.4,61.5,30.10,North,0,0.0,0.0,97,0.00,,---,0.00,VWS V14.01,2013-08-24 04:15:00,
2013-08-24 00:30:00,62.1,61.2,30.10,North,0,0.0,0.0,97,0.00,,---,0.00,VWS V14.01,2013-08-24 04:30:00,
2013-08-24 00:45:00,61.8,60.9,30.11,North,0,0.0,0.0,97,0.00,,---,0.00,VWS V14.01,2013-08-24 04:45:00,
2013-08-24 01:00:00,61.5,60.6,30.11,North,0,0.0,0.0,97,0.00,,---,0.00,VWS V14.01,2013-08-24 05:00:00,
2013-08-24 01:15:00,61.3,60.4,30.12,North,0,0.0,0.0,97,0.00,,---,0.00,VWS V14.01,2013-08-24 05:15:00,
2013-08-24 01:30:00,61.0,60.2,30.11,North,0,0.0,0.0,97,0.00,,---,0.00,VWS V14.01,2013-08-24 05:30:00,
2013-08-24 01:45:00,60.5,59.7,30.12,North,0,0.0,0.0,97,0.00,,---,0.00,VWS V14.01,2013-08-24 05:45:00,
2013-08-24 02:00:00,60.2,59.6,30.12,North,0,0.0,0.0,98,0.00,,---,0.00,VWS V14.01,2013-08-24 06:00:00,
2013-08-24 02:15:00,59.8,59.2,30.13,North,0,0.0,0.0,98,0.00,,---,0.00,VWS V14.01,2013-08-24 06:15:00,
2013-08-24 02:30:00,59.5,58.9,30.14,North,0,0.0,0.0,98,0.00,,---,0.00,VWS V14.01,2013-08-24 06:30:00,
2013-08-24 02:45:00,59.3,58.7,30.14,North,0,0.0,0.0,98,0.00,,---,0.00,VWS V14.01,2013-08-24 06:45:00,
2013-08-24 03:00:00,59.0,58.4,30.14,North,0,0.0,0.0,98,0.00,,---,0.00,VWS V14.01,2013-08-24 07:00:00,
2013-08-24 03:15:00,58.9,58.3,30.15,North,0,0.0,0.0,98,0.00,,---,0.00,VWS V14.01,2013-08-24 07:15:00,
2013-08-24 03:30:00,58.6,58.0,30.16,West,270,0.0,1.0,98,0.00,,---,0.00,VWS V14.01,2013-08-24 07:30:00,
2013-08-24 03:45:00,58.3,57.7,30.16,West,270,0.0,0.0,98,0.00,,---,0.00,VWS V14.01,2013-08-24 07:45:00,
2013-08-24 04:00:00,58.0,57.4,30.17,West,270,0.0,0.0,98,0.00,,---,0.00,VWS V14.01,2013-08-24 08:00:00,
2013-08-24 04:15:00,57.6,57.0,30.17,West,270,0.0,0.0,98,0.00,,---,0.00,VWS V14.01,2013-08-24 08:15:00,
2013-08-24 04:30:00,57.2,56.6,30.17,West,270,0.0,0.0,98,0.00,,---,0.00,VWS V14.01,2013-08-24 08:30:00,
2013-08-24 04:45:00,56.7,56.1,30.18,West,270,0.0,0.0,98,0.00,,---,0.00,VWS V14.01,2013-08-24 08:45:00,
2013-08-24 05:00:00,56.5,55.9,30.18,West,270,0.0,1.0,98,0.00,,---,0.00,VWS V14.01,2013-08-24 09:00:00,
2013-08-24 05:15:00,56.0,55.5,30.18,West,270,0.0,0.0,98,0.00,,---,0.00,VWS V14.01,2013-08-24 09:15:00,
2013-08-24 05:30:00,55.6,55.0,30.19,West,270,0.0,0.0,98,0.00,,---,0.00,VWS V14.01,2013-08-24 09:30:00,
2013-08-24 05:45:00,55.3,54.8,30.20,West,270,0.0,0.0,98,0.00,,---,0.00,VWS V14.01,2013-08-24 09:45:00,
2013-08-24 06:00:00,55.0,54.5,30.21,West,270,0.0,0.0,98,0.00,,---,0.00,VWS V14.01,2013-08-24 10:00:00,
2013-08-24 06:15:00,54.7,54.2,30.21,West,270,0.0,0.0,98,0.00,,---,0.00,VWS V14.01,2013-08-24 10:15:00,
2013-08-24 06:32:00,54.4,53.8,30.21,West,266,0.0,0.0,98,0.00,,---,0.00,VWS V14.01,2013-08-24 10:32:00,
2013-08-24 06:33:00,54.4,53.8,30.21,West,266,0.0,0.0,98,0.00,,---,0.00,VWS V14.01,2013-08-24 10:33:00,
2013-08-24 06:37:00,54.2,53.7,30.22,West,266,0.0,0.0,98,0.00,,---,0.00,VWS V14.01,2013-08-24 10:37:00,
2013-08-24 06:39:00,54.2,53.7,30.22,West,266,0.0,0.0,98,0.00,,---,0.00,VWS V14.01,2013-08-24 10:39:00,
2013-08-24 06:43:00,54.2,53.7,30.22,West,266,0.0,0.0,98,0.00,,---,0.00,VWS V14.01,2013-08-24 10:43:00,
2013-08-24 06:45:00,54.2,53.7,30.22,West,266,0.0,0.0,98,0.00,,---,0.00,VWS V14.01,2013-08-24 10:45:00,
2013-08-24 06:47:00,54.4,53.8,30.22,West,266,0.0,0.0,98,0.00,,---,0.00,VWS V14.01,2013-08-24 10:47:00,
2013-08-24 06:51:00,54.4,54.1,30.23,West,266,0.0,0.0,99,0.00,,---,0.00,VWS V14.01,2013-08-24 10:51:00,
2013-08-24 06:53:00,54.4,54.1,30.23,West,266,0.0,0.0,99,0.00,,---,0.00,VWS V14.01,2013-08-24 10:53:00,
2013-08-24 06:57:00,54.5,54.2,30.23,West,266,0.0,0.0,99,0.00,,---,0.00,VWS V14.01,2013-08-24 10:57:00,
2013-08-24 07:01:00,54.8,54.5,30.23,West,266,0.0,0.0,99,0.00,,---,0.00,VWS V14.01,2013-08-24 11:01:00,
2013-08-24 07:03:00,55.0,54.7,30.23,West,266,0.0,0.0,99,0.00,,---,0.00,VWS V14.01,2013-08-24 11:03:00,
2013-08-24 07:07:00,55.1,54.8,30.23,West,266,0.0,0.0,99,0.00,,---,0.00,VWS V14.01,2013-08-24 11:07:00,
2013-08-24 07:09:00,55.1,54.8,30.23,West,266,0.0,0.0,99,0.00,,---,0.00,VWS V14.01,2013-08-24 11:09:00,
2013-08-24 07:13:00,55.4,55.1,30.23,West,266,0.0,0.0,99,0.00,,---,0.00,VWS V14.01,2013-08-24 11:13:00,
2013-08-24 07:15:00,55.6,55.3,30.23,West,266,0.0,0.0,99,0.00,,---,0.00,VWS V14.01,2013-08-24 11:15:00,
2013-08-24 07:17:00,55.6,55.3,30.24,West,266,0.0,0.0,99,0.00,,---,0.00,VWS V14.01,2013-08-24 11:17:00,
2013-08-24 07:21:00,55.9,55.6,30.24,West,266,0.0,0.0,99,0.00,,---,0.00,VWS V14.01,2013-08-24 11:21:00,
2013-08-24 07:23:00,55.9,55.6,30.24,West,266,0.0,0.0,99,0.00,,---,0.00,VWS V14.01,2013-08-24 11:23:00,
2013-08-24 07:25:00,56.0,55.7,30.24,West,266,0.0,0.0,99,0.00,,---,0.00,VWS V14.01,2013-08-24 11:25:00,
2013-08-24 07:27:00,56.2,55.9,30.24,West,266,0.0,0.0,99,0.00,,---,0.00,VWS V14.01,2013-08-24 11:27:00,
2013-08-24 07:31:00,56.5,56.2,30.24,West,266,0.0,0.0,99,0.00,,---,0.00,VWS V14.01,2013-08-24 11:31:00,
2013-08-24 07:33:00,56.6,56.3,30.24,West,266,0.0,0.0,99,0.00,,---,0.00,VWS V14.01,2013-08-24 11:33:00,
2013-08-24 07:35:00,56.7,56.4,30.24,West,266,0.0,0.0,99,0.00,,---,0.00,VWS V14.01,2013-08-24 11:35:00,
2013-08-24 07:37:00,56.9,56.6,30.24,West,266,0.0,0.0,99,0.00,,---,0.00,VWS V14.01,2013-08-24 11:37:00,
2013-08-24 07:41:00,57.0,56.7,30.25,West,266,0.0,0.0,99,0.00,,---,0.00,VWS V14.01,2013-08-24 11:41:00,
2013-08-24 07:43:00,57.2,56.9,30.25,West,266,0.0,0.0,99,0.00,,---,0.00,VWS V14.01,2013-08-24 11:43:00,
2013-08-24 07:47:00,57.3,56.7,30.25,West,266,0.0,0.0,98,0.00,,---,0.00,VWS V14.01,2013-08-24 11:47:00,
2013-08-24 07:49:00,57.3,56.7,30.25,West,266,0.0,0.0,98,0.00,,---,0.00,VWS V14.01,2013-08-24 11:49:00,
2013-08-24 07:55:00,57.8,57.2,30.25,West,266,0.0,0.0,98,0.00,,---,0.00,VWS V14.01,2013-08-24 11:55:00,
2013-08-24 07:57:00,58.0,57.4,30.25,West,266,0.0,0.0,98,0.00,,---,0.00,VWS V14.01,2013-08-24 11:57:00,
2013-08-24 07:59:00,58.1,57.5,30.25,West,266,0.0,0.0,98,0.00,,---,0.00,VWS V14.01,2013-08-24 11:59:00,
2013-08-24 08:01:00,58.3,57.7,30.25,West,266,0.0,0.0,98,0.00,,---,0.00,VWS V14.01,2013-08-24 12:01:00,
2013-08-24 08:03:00,58.4,57.6,30.25,West,266,0.0,0.0,97,0.00,,---,0.00,VWS V14.01,2013-08-24 12:03:00,
2013-08-24 08:09:00,58.9,57.8,30.25,West,266,0.0,1.0,96,0.00,,---,0.00,VWS V14.01,2013-08-24 12:09:00,
2013-08-24 08:11:00,59.2,58.1,30.26,West,266,0.0,1.0,96,0.00,,---,0.00,VWS V14.01,2013-08-24 12:11:00,
2013-08-24 08:13:00,59.3,57.9,30.26,West,266,0.0,1.0,95,0.00,,---,0.00,VWS V14.01,2013-08-24 12:13:00,
2013-08-24 08:15:00,59.5,57.5,30.26,West,266,0.0,1.0,93,0.00,,---,0.00,VWS V14.01,2013-08-24 12:15:00,
2013-08-24 08:16:00,59.5,57.5,30.26,West,266,0.0,1.0,93,0.00,,---,0.00,VWS V14.01,2013-08-24 12:16:00,
2013-08-24 08:21:00,60.1,56.5,30.26,West,267,0.0,1.0,88,0.00,,---,0.00,VWS V14.01,2013-08-24 12:21:00,
2013-08-24 08:23:00,60.4,56.2,30.26,West,267,0.0,1.0,86,0.00,,---,0.00,VWS V14.01,2013-08-24 12:23:00,
2013-08-24 08:27:00,61.2,56.0,30.26,West,267,0.0,1.0,83,0.00,,---,0.00,VWS V14.01,2013-08-24 12:27:00,
2013-08-24 08:31:00,61.5,54.9,30.26,West,267,0.0,1.0,79,0.00,,---,0.00,VWS V14.01,2013-08-24 12:31:00,
2013-08-24 08:37:00,62.4,54.4,30.26,West,267,0.0,1.0,75,0.00,,---,0.00,VWS V14.01,2013-08-24 12:37:00,
2013-08-24 08:39:00,62.6,54.6,30.26,West,267,0.0,1.0,75,0.00,,---,0.00,VWS V14.01,2013-08-24 12:39:00,
2013-08-24 08:41:00,62.9,54.9,30.26,West,267,0.0,1.0,75,0.00,,---,0.00,VWS V14.01,2013-08-24 12:41:00,
2013-08-24 08:43:00,63.1,55.1,30.26,West,267,0.0,1.0,75,0.00,,---,0.00,VWS V14.01,2013-08-24 12:43:00,
2013-08-24 08:46:00,63.2,55.2,30.26,West,267,0.0,1.0,75,0.00,,---,0.00,VWS V14.01,2013-08-24 12:46:00,
2013-08-24 08:51:00,63.9,53.9,30.26,West,269,0.0,1.0,70,0.00,,---,0.00,VWS V14.01,2013-08-24 12:51:00,
2013-08-24 08:53:00,64.2,53.8,30.26,West,269,0.0,1.0,69,0.00,,---,0.00,VWS V14.01,2013-08-24 12:53:00,
2013-08-24 08:55:00,64.5,53.7,30.26,WNW,294,0.0,2.0,68,0.00,,---,0.00,VWS V14.01,2013-08-24 12:55:00,
2013-08-24 08:57:00,64.8,53.6,30.26,WNW,294,0.0,2.0,67,0.00,,---,0.00,VWS V14.01,2013-08-24 12:57:00,
2013-08-24 09:01:00,65.6,54.0,30.26,WNW,298,0.0,2.0,66,0.00,,---,0.00,VWS V14.01,2013-08-24 13:01:00,
2013-08-24 09:03:00,66.1,54.4,30.26,WNW,298,1.0,1.0,66,0.00,,---,0.00,VWS V14.01,2013-08-24 13:03:00,
2013-08-24 09:07:00,66.6,53.6,30.27,WNW,298,0.0,1.0,63,0.00,,---,0.00,VWS V14.01,2013-08-24 13:07:00,
2013-08-24 09:11:00,67.1,54.1,30.27,North,5,1.0,2.0,63,0.00,,---,0.00,VWS V14.01,2013-08-24 13:11:00,
2013-08-24 09:13:00,67.4,53.0,30.27,North,5,0.0,2.0,60,0.00,,---,0.00,VWS V14.01,2013-08-24 13:13:00,
2013-08-24 09:15:00,67.6,53.7,30.27,North,5,0.0,2.0,61,0.00,,---,0.00,VWS V14.01,2013-08-24 13:15:00,
2013-08-24 09:17:00,67.9,54.0,30.27,North,5,0.0,0.0,61,0.00,,---,0.00,VWS V14.01,2013-08-24 13:17:00,
2013-08-24 09:19:00,68.1,54.2,30.27,North,5,0.0,1.0,61,0.00,,---,0.00,VWS V14.01,2013-08-24 13:19:00,
2013-08-24 09:21:00,68.3,54.3,30.27,North,5,0.0,1.0,61,0.00,,---,0.00,VWS V14.01,2013-08-24 13:21:00,
2013-08-24 09:23:00,68.4,54.0,30.27,East,88,2.0,3.0,60,0.00,,---,0.00,VWS V14.01,2013-08-24 13:23:00,
2013-08-24 09:28:00,68.3,53.0,30.27,ENE,61,1.0,3.0,58,0.00,,---,0.00,VWS V14.01,2013-08-24 13:28:00,
2013-08-24 09:31:00,68.3,54.3,30.27,ENE,61,0.0,3.0,61,0.00,,---,0.00,VWS V14.01,2013-08-24 13:31:00,
2013-08-24 09:32:00,68.3,53.4,30.27,ENE,61,1.0,1.0,59,0.00,,---,0.00,VWS V14.01,2013-08-24 13:32:00,
2013-08-24 09:36:00,68.4,54.4,30.27,ENE,64,2.0,3.0,61,0.00,,---,0.00,VWS V14.01,2013-08-24 13:36:00,
2013-08-24 09:38:00,68.6,54.2,30.28,ENE,63,0.0,3.0,60,0.00,,---,0.00,VWS V14.01,2013-08-24 13:38:00,
2013-08-24 09:40:00,68.6,53.7,30.28,NNE,31,0.0,3.0,59,0.00,,---,0.00,VWS V14.01,2013-08-24 13:40:00,
2013-08-24 09:42:00,68.4,53.1,30.27,NNE,31,0.0,3.0,58,0.00,,---,0.00,VWS V14.01,2013-08-24 13:42:00,
2013-08-24 09:44:00,68.6,53.2,30.27,East,88,2.0,3.0,58,0.00,,---,0.00,VWS V14.01,2013-08-24 13:44:00,
2013-08-24 09:46:00,68.6,53.2,30.28,East,88,0.0,3.0,58,0.00,,---,0.00,VWS V14.01,2013-08-24 13:46:00,
2013-08-24 09:48:00,68.6,53.7,30.28,NW,319,1.0,2.0,59,0.00,,---,0.00,VWS V14.01,2013-08-24 13:48:00,
2013-08-24 09:52:00,68.6,53.7,30.28,NNW,331,0.0,4.0,59,0.00,,---,0.00,VWS V14.01,2013-08-24 13:52:00,
2013-08-24 09:56:00,68.6,52.8,30.28,NNW,338,2.0,5.0,57,0.00,,---,0.00,VWS V14.01,2013-08-24 13:56:00,
2013-08-24 09:58:00,68.6,53.2,30.28,NE,55,0.0,5.0,58,0.00,,---,0.00,VWS V14.01,2013-08-24 13:58:00,
2013-08-24 10:00:00,68.8,53.9,30.28,NE,55,0.0,5.0,59,0.00,,---,0.00,VWS V14.01,2013-08-24 14:00:00,
2013-08-24 10:02:00,68.9,54.9,30.28,NE,55,0.0,1.0,61,0.00,,---,0.00,VWS V14.01,2013-08-24 14:02:00,
2013-08-24 10:04:00,68.9,54.5,30.28,NE,55,0.0,1.0,60,0.00,,---,0.00,VWS V14.01,2013-08-24 14:04:00,
2013-08-24 10:06:00,69.1,54.7,30.28,NE,56,0.0,1.0,60,0.00,,---,0.00,VWS V14.01,2013-08-24 14:06:00,
2013-08-24 10:08:00,69.3,53.9,30.28,ENE,78,0.0,3.0,58,0.00,,---,0.00,VWS V14.01,2013-08-24 14:08:00,
2013-08-24 10:10:00,69.3,53.9,30.28,NNE,25,0.0,4.0,58,0.00,,---,0.00,VWS V14.01,2013-08-24 14:10:00,
2013-08-24 10:14:00,69.6,54.7,30.28,East,94,2.0,4.0,59,0.00,,---,0.00,VWS V14.01,2013-08-24 14:14:00,
2013-08-24 10:18:00,69.8,53.4,30.28,East,90,4.0,5.0,56,0.00,,---,0.00,VWS V14.01,2013-08-24 14:18:00,
2013-08-24 10:20:00,69.8,53.9,30.28,East,98,2.0,5.0,57,0.00,,---,0.00,VWS V14.01,2013-08-24 14:20:00,
2013-08-24 10:22:00,69.8,53.4,30.28,ENE,62,2.0,5.0,56,0.00,,---,0.00,VWS V14.01,2013-08-24 14:22:00,
2013-08-24 10:24:00,69.8,52.9,30.28,NNE,24,2.0,7.0,55,0.00,,---,0.00,VWS V14.01,2013-08-24 14:24:00,
2013-08-24 10:26:00,69.8,53.4,30.28,NE,37,6.0,7.0,56,0.00,,---,0.00,VWS V14.01,2013-08-24 14:26:00,
2013-08-24 10:28:00,69.8,53.4,30.28,ENE,69,1.0,7.0,56,0.00,,---,0.00,VWS V14.01,2013-08-24 14:28:00,
2013-08-24 10:32:00,69.9,53.0,30.28,North,10,1.0,4.0,55,0.00,,---,0.00,VWS V14.01,2013-08-24 14:32:00,
2013-08-24 10:34:00,69.9,53.5,30.28,NNE,12,1.0,4.0,56,0.00,,---,0.00,VWS V14.01,2013-08-24 14:34:00,
2013-08-24 10:38:00,70.3,53.9,30.28,East,85,0.0,4.0,56,0.00,,---,0.00,VWS V14.01,2013-08-24 14:38:00,
2013-08-24 10:40:00,70.4,54.0,30.28,East,86,0.0,4.0,56,0.00,,---,0.00,VWS V14.01,2013-08-24 14:40:00,
2013-08-24 10:44:00,70.6,54.2,30.28,ENE,78,0.0,4.0,56,0.00,,---,0.00,VWS V14.01,2013-08-24 14:44:00,
2013-08-24 10:46:00,70.6,54.2,30.28,East,90,0.0,4.0,56,0.00,,---,0.00,VWS V14.01,2013-08-24 14:46:00,
2013-08-24 10:48:00,70.8,54.3,30.28,East,91,0.0,2.0,56,0.00,,---,0.00,VWS V14.01,2013-08-24 14:48:00,
2013-08-24 10:52:00,70.9,52.4,30.28,NNE,16,1.0,6.0,52,0.00,,---,0.00,VWS V14.01,2013-08-24 14:52:00,
2013-08-24 10:54:00,70.9,52.9,30.28,NNE,16,0.0,6.0,53,0.00,,---,0.00,VWS V14.01,2013-08-24 14:54:00,
2013-08-24 10:56:00,70.9,52.9,30.28,NNE,16,0.0,6.0,53,0.00,,---,0.00,VWS V14.01,2013-08-24 14:56:00,
2013-08-24 10:58:00,70.9,53.4,30.28,NNE,28,0.0,6.0,54,0.00,,---,0.00,VWS V14.01,2013-08-24 14:58:00,
2013-08-24 11:00:00,71.1,54.1,30.28,ENE,66,4.0,6.0,55,0.00,,---,0.00,VWS V14.01,2013-08-24 15:00:00,
2013-08-24 11:04:00,71.1,51.5,30.28,East,97,0.0,5.0,50,0.00,,---,0.00,VWS V14.01,2013-08-24 15:04:00,
2013-08-24 11:06:00,71.1,53.1,30.28,East,97,1.0,5.0,53,0.00,,---,0.00,VWS V14.01,2013-08-24 15:06:00,
2013-08-24 11:12:00,71.3,54.8,30.28,NE,51,0.0,5.0,56,0.00,,---,0.00,VWS V14.01,2013-08-24 15:12:00,
2013-08-24 11:14:00,71.5,54.0,30.28,ENE,61,0.0,5.0,54,0.00,,---,0.00,VWS V14.01,2013-08-24 15:14:00,
2013-08-24 11:16:00,71.6,53.6,30.28,ENE,76,1.0,5.0,53,0.00,,---,0.00,VWS V14.01,2013-08-24 15:16:00,
2013-08-24 11:18:00,71.6,53.1,30.28,ENE,76,0.0,1.0,52,0.00,,---,0.00,VWS V14.01,2013-08-24 15:18:00,
2013-08-24 11:20:00,71.6,52.5,30.28,NNE,28,3.0,3.0,51,0.00,,---,0.00,VWS V14.01,2013-08-24 15:20:00,
2013-08-24 11:22:00,71.6,53.1,30.28,NE,39,2.0,6.0,52,0.00,,---,0.00,VWS V14.01,2013-08-24 15:22:00,
2013-08-24 11:24:00,71.6,53.1,30.28,East,98,2.0,6.0,52,0.00,,---,0.00,VWS V14.01,2013-08-24 15:24:00,
2013-08-24 11:26:00,71.8,53.2,30.28,NE,44,1.0,6.0,52,0.00,,---,0.00,VWS V14.01,2013-08-24 15:26:00,
2013-08-24 11:28:00,71.8,53.2,30.28,NNE,27,0.0,6.0,52,0.00,,---,0.00,VWS V14.01,2013-08-24 15:28:00,
2013-08-24 11:30:00,71.8,53.2,30.28,NNE,27,0.0,6.0,52,0.00,,---,0.00,VWS V14.01,2013-08-24 15:30:00,
2013-08-24 11:31:00,72.0,54.5,30.28,NNE,27,0.0,6.0,54,0.00,,---,0.00,VWS V14.01,2013-08-24 15:31:00,
2013-08-24 11:36:00,72.3,53.7,30.28,ESE,106,3.0,4.0,52,0.00,,---,0.00,VWS V14.01,2013-08-24 15:36:00,
2013-08-24 11:40:00,72.3,54.2,30.28,East,82,2.0,4.0,53,0.00,,---,0.00,VWS V14.01,2013-08-24 15:40:00,
2013-08-24 11:42:00,72.5,53.9,30.28,ENE,78,1.0,4.0,52,0.00,,---,0.00,VWS V14.01,2013-08-24 15:42:00,
2013-08-24 11:46:00,72.5,53.4,30.28,NW,316,1.0,4.0,51,0.00,,---,0.00,VWS V14.01,2013-08-24 15:46:00,
2013-08-24 11:50:00,72.7,54.1,30.28,NW,321,0.0,1.0,52,0.00,,---,0.00,VWS V14.01,2013-08-24 15:50:00,
2013-08-24 11:52:00,72.8,54.7,30.27,NNE,16,3.0,5.0,53,0.00,,---,0.00,VWS V14.01,2013-08-24 15:52:00,
2013-08-24 11:54:00,73.0,53.8,30.28,ENE,62,0.0,5.0,51,0.00,,---,0.00,VWS V14.01,2013-08-24 15:54:00,
2013-08-24 11:56:00,73.0,53.8,30.27,North,5,0.0,5.0,51,0.00,,---,0.00,VWS V14.01,2013-08-24 15:56:00,
2013-08-24 12:00:00,73.3,55.2,30.28,North,5,0.0,5.0,53,0.00,,---,0.00,VWS V14.01,2013-08-24 16:00:00,
2013-08-24 12:01:00,73.5,54.8,30.28,North,5,1.0,5.0,52,0.00,,---,0.00,VWS V14.01,2013-08-24 16:01:00,
2013-08-24 12:02:00,73.5,54.3,30.28,North,11,0.0,1.0,51,0.00,,---,0.00,VWS V14.01,2013-08-24 16:02:00,
2013-08-24 12:06:00,73.9,53.6,30.27,NE,53,1.0,2.0,49,0.00,,---,0.00,VWS V14.01,2013-08-24 16:06:00,
2013-08-24 12:08:00,74.0,55.8,30.28,ENE,78,1.0,4.0,53,0.00,,---,0.00,VWS V14.01,2013-08-24 16:08:00,
2013-08-24 12:10:00,74.0,55.8,30.28,ENE,76,2.0,4.0,53,0.00,,---,0.00,VWS V14.01,2013-08-24 16:10:00,
2013-08-24 12:16:00,74.0,53.7,30.27,SE,140,0.0,4.0,49,0.00,,---,0.00,VWS V14.01,2013-08-24 16:16:00,
2013-08-24 12:18:00,74.0,53.7,30.27,SE,140,0.0,1.0,49,0.00,,---,0.00,VWS V14.01,2013-08-24 16:18:00,
2013-08-24 12:24:00,74.7,55.9,30.27,South,169,0.0,4.0,52,0.00,,---,0.00,VWS V14.01,2013-08-24 16:24:00,
2013-08-24 12:26:00,74.9,55.6,30.27,WSW,257,0.0,4.0,51,0.00,,---,0.00,VWS V14.01,2013-08-24 16:26:00,
2013-08-24 12:28:00,75.1,54.7,30.27,NNE,22,0.0,4.0,49,0.00,,---,0.00,VWS V14.01,2013-08-24 16:28:00,
2013-08-24 12:30:00,75.1,54.1,30.27,ENE,66,0.0,4.0,48,0.00,,---,0.00,VWS V14.01,2013-08-24 16:30:00,
2013-08-24 12:31:00,75.1,53.5,30.27,ENE,66,0.0,4.0,47,0.00,,---,0.00,VWS V14.01,2013-08-24 16:31:00,
2013-08-24 12:32:00,75.1,54.1,30.27,ENE,66,0.0,1.0,48,0.00,,---,0.00,VWS V14.01,2013-08-24 16:32:00,
2013-08-24 12:34:00,75.1,54.7,30.27,ENE,67,0.0,1.0,49,0.00,,---,0.00,VWS V14.01,2013-08-24 16:34:00,
2013-08-24 12:36:00,75.3,54.3,30.27,ENE,67,0.0,2.0,48,0.00,,---,0.00,VWS V14.01,2013-08-24 16:36:00,
2013-08-24 12:38:00,75.4,54.4,30.27,ENE,67,0.0,2.0,48,0.00,,---,0.00,VWS V14.01,2013-08-24 16:38:00,
2013-08-24 12:42:00,75.8,53.6,30.27,East,82,0.0,2.0,46,0.00,,---,0.00,VWS V14.01,2013-08-24 16:42:00,
2013-08-24 12:44:00,76.0,53.8,30.27,East,82,0.0,2.0,46,0.00,,---,0.00,VWS V14.01,2013-08-24 16:44:00,
2013-08-24 12:46:00,76.0,53.8,30.27,NE,53,1.0,4.0,46,0.00,,---,0.00,VWS V14.01,2013-08-24 16:46:00,
2013-08-24 12:48:00,76.0,51.9,30.27,NNE,22,0.0,4.0,43,0.00,,---,0.00,VWS V14.01,2013-08-24 16:48:00,
2013-08-24 12:52:00,76.3,54.0,30.27,North,351,1.0,4.0,46,0.00,,---,0.00,VWS V14.01,2013-08-24 16:52:00,
2013-08-24 12:54:00,76.3,53.4,30.26,NNW,348,1.0,4.0,45,0.00,,---,0.00,VWS V14.01,2013-08-24 16:54:00,
2013-08-24 12:58:00,76.3,53.4,30.27,East,84,4.0,6.0,45,0.00,,---,0.00,VWS V14.01,2013-08-24 16:58:00,
2013-08-24 13:00:00,76.0,51.9,30.27,ENE,75,0.0,6.0,43,0.00,,---,0.00,VWS V14.01,2013-08-24 17:00:00,
2013-08-24 13:01:00,76.0,51.9,30.27,East,92,1.0,6.0,43,0.00,,---,0.00,VWS V14.01,2013-08-24 17:01:00,
2013-08-24 13:02:00,75.8,53.0,30.27,East,79,1.0,1.0,45,0.00,,---,0.00,VWS V14.01,2013-08-24 17:02:00,
2013-08-24 13:04:00,76.0,53.8,30.27,East,79,0.0,1.0,46,0.00,,---,0.00,VWS V14.01,2013-08-24 17:04:00,
2013-08-24 13:08:00,76.3,52.8,30.27,North,5,3.0,5.0,44,0.00,,---,0.00,VWS V14.01,2013-08-24 17:08:00,
2013-08-24 13:10:00,76.5,54.2,30.27,North,5,0.0,5.0,46,0.00,,---,0.00,VWS V14.01,2013-08-24 17:10:00,
2013-08-24 13:12:00,76.5,53.0,30.27,North,11,0.0,5.0,44,0.00,,---,0.00,VWS V14.01,2013-08-24 17:12:00,
2013-08-24 13:14:00,76.7,52.5,30.27,North,11,0.0,5.0,43,0.00,,---,0.00,VWS V14.01,2013-08-24 17:14:00,
2013-08-24 13:18:00,76.5,51.7,30.27,East,93,1.0,2.0,42,0.00,,---,0.00,VWS V14.01,2013-08-24 17:18:00,
2013-08-24 13:20:00,76.5,53.0,30.26,NNW,337,3.0,3.0,44,0.00,,---,0.00,VWS V14.01,2013-08-24 17:20:00,
2013-08-24 13:24:00,76.8,53.3,30.27,NNE,30,0.0,3.0,44,0.00,,---,0.00,VWS V14.01,2013-08-24 17:24:00,
2013-08-24 13:26:00,76.8,54.5,30.26,NNE,30,0.0,3.0,46,0.00,,---,0.00,VWS V14.01,2013-08-24 17:26:00,
2013-08-24 13:28:00,77.0,54.7,30.27,ENE,58,1.0,5.0,46,0.00,,---,0.00,VWS V14.01,2013-08-24 17:28:00,
2013-08-24 13:30:00,76.8,54.5,30.27,ENE,65,0.0,5.0,46,0.00,,---,0.00,VWS V14.01,2013-08-24 17:30:00,
2013-08-24 13:31:00,76.8,54.5,30.27,ENE,65,0.0,5.0,46,0.00,,---,0.00,VWS V14.01,2013-08-24 17:31:00,
2013-08-24 13:32:00,76.8,54.5,30.27,East,88,2.0,4.0,46,0.00,,---,0.00,VWS V14.01,2013-08-24 17:32:00,
2013-08-24 13:36:00,76.7,55.0,30.27,ENE,58,1.0,4.0,47,0.00,,---,0.00,VWS V14.01,2013-08-24 17:36:00,
2013-08-24 13:38:00,76.7,53.8,30.27,NE,46,0.0,4.0,45,0.00,,---,0.00,VWS V14.01,2013-08-24 17:38:00,
2013-08-24 13:42:00,76.7,52.5,30.27,ENE,61,3.0,4.0,43,0.00,,---,0.00,VWS V14.01,2013-08-24 17:42:00,
2013-08-24 13:44:00,76.5,54.2,30.27,ENE,64,0.0,4.0,46,0.00,,---,0.00,VWS V14.01,2013-08-24 17:44:00,
2013-08-24 13:46:00,76.5,53.6,30.27,ENE,64,0.0,0.0,45,0.00,,---,0.00,VWS V14.01,2013-08-24 17:46:00,
2013-08-24 13:48:00,76.7,54.4,30.27,ENE,64,0.0,0.0,46,0.00,,---,0.00,VWS V14.01,2013-08-24 17:48:00,
2013-08-24 13:50:00,77.0,55.2,30.27,ENE,64,0.0,1.0,47,0.00,,---,0.00,VWS V14.01,2013-08-24 17:50:00,
2013-08-24 13:54:00,77.7,55.9,30.26,South,180,2.0,3.0,47,0.00,,---,0.00,VWS V14.01,2013-08-24 17:54:00,
2013-08-24 13:58:00,77.7,58.2,30.26,ESE,107,4.0,5.0,51,0.00,,---,0.00,VWS V14.01,2013-08-24 17:58:00,
2013-08-24 14:00:00,77.4,54.4,30.27,ENE,68,4.0,5.0,45,0.00,,---,0.00,VWS V14.01,2013-08-24 18:00:00,
2013-08-24 14:01:00,77.4,54.4,30.27,ENE,67,3.0,5.0,45,0.00,,---,0.00,VWS V14.01,2013-08-24 18:01:00,
2013-08-24 14:06:00,76.7,52.5,30.27,East,96,1.0,5.0,43,0.00,,---,0.00,VWS V14.01,2013-08-24 18:06:00,
2013-08-24 14:08:00,76.5,52.4,30.27,ESE,107,0.0,5.0,43,0.00,,---,0.00,VWS V14.01,2013-08-24 18:08:00,
2013-08-24 14:12:00,76.7,53.8,30.27,East,92,2.0,6.0,45,0.00,,---,0.00,VWS V14.01,2013-08-24 18:12:00,
2013-08-24 14:14:00,76.8,55.1,30.27,NE,54,4.0,6.0,47,0.00,,---,0.00,VWS V14.01,2013-08-24 18:14:00,
2013-08-24 14:16:00,76.8,54.5,30.27,ENE,57,3.0,6.0,46,0.00,,---,0.00,VWS V14.01,2013-08-24 18:16:00,
2013-08-24 14:18:00,76.8,55.1,30.27,NNW,333,2.0,4.0,47,0.00,,---,0.00,VWS V14.01,2013-08-24 18:18:00,
2013-08-24 14:22:00,77.2,53.6,30.27,SSE,159,0.0,4.0,44,0.00,,---,0.00,VWS V14.01,2013-08-24 18:22:00,
2013-08-24 14:24:00,77.2,54.2,30.27,SSE,159,0.0,4.0,45,0.00,,---,0.00,VWS V14.01,2013-08-24 18:24:00,
2013-08-24 14:29:00,77.7,56.5,30.27,SE,134,1.0,4.0,48,0.00,,---,0.00,VWS V14.01,2013-08-24 18:29:00,
2013-08-24 14:31:00,77.7,53.5,30.27,ESE,107,2.0,4.0,43,0.00,,---,0.00,VWS V14.01,2013-08-24 18:31:00,
2013-08-24 14:35:00,77.6,54.0,30.27,East,95,0.0,4.0,44,0.00,,---,0.00,VWS V14.01,2013-08-24 18:35:00,
2013-08-24 14:39:00,77.6,52.1,30.27,East,86,2.0,4.0,41,0.00,,---,0.00,VWS V14.01,2013-08-24 18:39:00,
2013-08-24 14:41:00,77.6,52.7,30.27,ENE,77,3.0,4.0,42,0.00,,---,0.00,VWS V14.01,2013-08-24 18:41:00,
2013-08-24 14:43:00,77.6,53.4,30.27,ENE,63,3.0,5.0,43,0.00,,---,0.00,VWS V14.01,2013-08-24 18:43:00,
2013-08-24 14:45:00,77.6,53.4,30.27,ENE,65,4.0,5.0,43,0.00,,---,0.00,VWS V14.01,2013-08-24 18:45:00,
2013-08-24 14:47:00,77.6,53.4,30.26,ENE,67,0.0,1.0,43,0.00,,---,0.00,VWS V14.01,2013-08-24 18:47:00,
2013-08-24 14:49:00,77.6,52.7,30.27,East,82,0.0,4.0,42,0.00,,---,0.00,VWS V14.01,2013-08-24 18:49:00,
2013-08-24 14:53:00,77.7,54.7,30.27,ENE,78,3.0,4.0,45,0.00,,---,0.00,VWS V14.01,2013-08-24 18:53:00,
2013-08-24 14:55:00,77.6,51.4,30.27,ESE,105,1.0,4.0,40,0.00,,---,0.00,VWS V14.01,2013-08-24 18:55:00,
2013-08-24 15:01:00,77.7,50.8,30.26,ENE,58,0.0,5.0,39,0.00,,---,0.00,VWS V14.01,2013-08-24 19:01:00,
2013-08-24 15:03:00,77.9,51.7,30.26,ENE,59,0.0,2.0,40,0.00,,---,0.00,VWS V14.01,2013-08-24 19:03:00,
2013-08-24 15:07:00,78.1,52.5,30.26,SE,135,0.0,3.0,41,0.00,,---,0.00,VWS V14.01,2013-08-24 19:07:00,
2013-08-24 15:09:00,78.1,52.5,30.26,East,88,2.0,3.0,41,0.00,,---,0.00,VWS V14.01,2013-08-24 19:09:00,
2013-08-24 15:13:00,78.1,52.5,30.26,ESE,109,0.0,3.0,41,0.00,,---,0.00,VWS V14.01,2013-08-24 19:13:00,
2013-08-24 15:15:00,78.3,55.2,30.26,SE,126,0.0,3.0,45,0.00,,---,0.00,VWS V14.01,2013-08-24 19:15:00,
2013-08-24 15:16:00,78.3,54.6,30.26,SE,126,1.0,3.0,44,0.00,,---,0.00,VWS V14.01,2013-08-24 19:16:00,
2013-08-24 15:21:00,78.8,53.1,30.26,ENE,71,3.0,4.0,41,0.00,,---,0.00,VWS V14.01,2013-08-24 19:21:00,
2013-08-24 15:23:00,78.6,52.3,30.26,East,90,0.0,4.0,40,0.00,,---,0.00,VWS V14.01,2013-08-24 19:23:00,
2013-08-24 15:27:00,78.3,53.3,30.26,NNE,15,2.0,4.0,42,0.00,,---,0.00,VWS V14.01,2013-08-24 19:27:00,
2013-08-24 15:29:00,78.1,51.2,30.26,East,90,2.0,5.0,39,0.00,,---,0.00,VWS V14.01,2013-08-24 19:29:00,
2013-08-24 15:31:00,77.9,51.7,30.26,East,90,0.0,5.0,40,0.00,,---,0.00,VWS V14.01,2013-08-24 19:31:00,
2013-08-24 15:33:00,77.9,52.3,30.26,NE,37,1.0,4.0,41,0.00,,---,0.00,VWS V14.01,2013-08-24 19:33:00,
2013-08-24 15:35:00,78.1,53.2,30.26,ENE,61,2.0,4.0,42,0.00,,---,0.00,VWS V14.01,2013-08-24 19:35:00,
2013-08-24 15:37:00,77.9,51.0,30.26,East,87,1.0,5.0,39,0.00,,---,0.00,VWS V14.01,2013-08-24 19:37:00,
2013-08-24 15:41:00,78.1,51.8,30.26,East,90,3.0,5.0,40,0.00,,---,0.00,VWS V14.01,2013-08-24 19:41:00,
2013-08-24 15:43:00,78.1,51.2,30.26,NNE,28,3.0,5.0,39,0.00,,---,0.00,VWS V14.01,2013-08-24 19:43:00,
2013-08-24 15:45:00,78.3,51.3,30.26,ENE,65,0.0,5.0,39,0.00,,---,0.00,VWS V14.01,2013-08-24 19:45:00,
2013-08-24 15:47:00,78.3,50.6,30.26,ENE,65,2.0,2.0,38,0.00,,---,0.00,VWS V14.01,2013-08-24 19:47:00,
2013-08-24 15:49:00,78.3,52.7,30.26,NNE,26,0.0,2.0,41,0.00,,---,0.00,VWS V14.01,2013-08-24 19:49:00,
2013-08-24 15:51:00,78.6,53.0,30.26,SE,130,0.0,2.0,41,0.00,,---,0.00,VWS V14.01,2013-08-24 19:51:00,
2013-08-24 15:53:00,78.8,55.1,30.26,NE,47,3.0,4.0,44,0.00,,---,0.00,VWS V14.01,2013-08-24 19:53:00,
2013-08-24 15:55:00,78.8,51.8,30.26,ENE,67,0.0,4.0,39,0.00,,---,0.00,VWS V14.01,2013-08-24 19:55:00,
2013-08-24 15:59:00,78.8,52.5,30.26,ENE,58,0.0,4.0,40,0.00,,---,0.00,VWS V14.01,2013-08-24 19:59:00,
2013-08-24 16:01:00,78.6,50.2,30.26,ENE,63,0.0,4.0,37,0.00,,---,0.00,VWS V14.01,2013-08-24 20:01:00,
2013-08-24 16:05:00,78.5,50.8,30.26,NE,47,2.0,4.0,38,0.00,,---,0.00,VWS V14.01,2013-08-24 20:05:00,
2013-08-24 16:09:00,78.5,51.5,30.26,NE,53,0.0,4.0,39,0.00,,---,0.00,VWS V14.01,2013-08-24 20:09:00,
2013-08-24 16:13:00,78.6,51.6,30.26,NE,55,0.0,4.0,39,0.00,,---,0.00,VWS V14.01,2013-08-24 20:13:00,
2013-08-24 16:15:00,78.6,50.9,30.26,NE,55,0.0,4.0,38,0.00,,---,0.00,VWS V14.01,2013-08-24 20:15:00,
2013-08-24 16:17:00,78.8,50.4,30.26,NNE,15,3.0,5.0,37,0.00,,---,0.00,VWS V14.01,2013-08-24 20:17:00,
2013-08-24 16:23:00,78.6,52.3,30.26,North,5,0.0,7.0,40,0.00,,---,0.00,VWS V14.01,2013-08-24 20:23:00,
2013-08-24 16:25:00,78.6,50.9,30.26,East,84,0.0,7.0,38,0.00,,---,0.00,VWS V14.01,2013-08-24 20:25:00,
2013-08-24 16:27:00,78.6,49.4,30.26,East,84,2.0,7.0,36,0.00,,---,0.00,VWS V14.01,2013-08-24 20:27:00,
2013-08-24 16:31:00,78.5,50.8,30.26,East,100,4.0,4.0,38,0.00,,---,0.00,VWS V14.01,2013-08-24 20:31:00,
2013-08-24 16:33:00,78.3,50.6,30.26,East,97,0.0,4.0,38,0.00,,---,0.00,VWS V14.01,2013-08-24 20:33:00,
2013-08-24 16:35:00,78.1,50.5,30.26,East,97,0.0,4.0,38,0.00,,---,0.00,VWS V14.01,2013-08-24 20:35:00,
2013-08-24 16:37:00,78.1,49.7,30.26,East,97,0.0,4.0,37,0.00,,---,0.00,VWS V14.01,2013-08-24 20:37:00,
2013-08-24 16:39:00,77.9,50.3,30.26,ESE,103,0.0,4.0,38,0.00,,---,0.00,VWS V14.01,2013-08-24 20:39:00,
2013-08-24 16:41:00,78.1,51.2,30.26,SSE,150,0.0,4.0,39,0.00,,---,0.00,VWS V14.01,2013-08-24 20:41:00,
2013-08-24 16:43:00,78.3,52.0,30.26,SSE,150,1.0,4.0,40,0.00,,---,0.00,VWS V14.01,2013-08-24 20:43:00,
2013-08-24 16:45:00,78.5,52.2,30.26,ENE,74,2.0,4.0,40,0.00,,---,0.00,VWS V14.01,2013-08-24 20:45:00,
2013-08-24 16:46:00,78.5,50.1,30.26,ENE,74,0.0,4.0,37,0.00,,---,0.00,VWS V14.01,2013-08-24 20:46:00,
2013-08-24 16:47:00,78.5,50.8,30.26,ENE,74,0.0,1.0,38,0.00,,---,0.00,VWS V14.01,2013-08-24 20:47:00,
2013-08-24 16:51:00,78.8,49.6,30.26,East,87,0.0,3.0,36,0.00,,---,0.00,VWS V14.01,2013-08-24 20:51:00,
2013-08-24 16:53:00,78.8,50.4,30.26,ENE,78,1.0,3.0,37,0.00,,---,0.00,VWS V14.01,2013-08-24 20:53:00,
2013-08-24 16:59:00,78.8,51.1,30.27,SE,140,1.0,3.0,38,0.00,,---,0.00,VWS V14.01,2013-08-24 20:59:00,
2013-08-24 17:01:00,78.8,51.1,30.26,SE,140,1.0,3.0,38,0.00,,---,0.00,VWS V14.01,2013-08-24 21:01:00,
2013-08-24 17:05:00,79.0,52.6,30.26,SE,140,0.0,1.0,40,0.00,,---,0.00,VWS V14.01,2013-08-24 21:05:00,
2013-08-24 17:07:00,79.0,49.0,30.26,SE,140,0.0,1.0,35,0.00,,---,0.00,VWS V14.01,2013-08-24 21:07:00,
2013-08-24 17:09:00,79.2,50.7,30.26,SE,140,0.0,1.0,37,0.00,,---,0.00,VWS V14.01,2013-08-24 21:09:00,
2013-08-24 17:13:00,78.8,51.1,30.26,ESE,111,1.0,2.0,38,0.00,,---,0.00,VWS V14.01,2013-08-24 21:13:00,
2013-08-24 17:15:00,78.8,48.9,30.26,ESE,111,1.0,2.0,35,0.00,,---,0.00,VWS V14.01,2013-08-24 21:15:00,
2013-08-24 17:16:00,78.6,48.7,30.26,ESE,111,0.0,2.0,35,0.00,,---,0.00,VWS V14.01,2013-08-24 21:16:00,
2013-08-24 17:17:00,78.6,48.7,30.26,ESE,111,0.0,2.0,35,0.00,,---,0.00,VWS V14.01,2013-08-24 21:17:00,
2013-08-24 17:19:00,78.5,50.1,30.26,ESE,111,0.0,2.0,37,0.00,,---,0.00,VWS V14.01,2013-08-24 21:19:00,
2013-08-24 17:23:00,78.6,51.6,30.26,ESE,111,0.0,2.0,39,0.00,,---,0.00,VWS V14.01,2013-08-24 21:23:00,
2013-08-24 17:25:00,78.6,49.4,30.26,ENE,65,2.0,4.0,36,0.00,,---,0.00,VWS V14.01,2013-08-24 21:25:00,
2013-08-24 17:29:00,78.3,48.4,30.26,ENE,69,1.0,4.0,35,0.00,,---,0.00,VWS V14.01,2013-08-24 21:29:00,
2013-08-24 17:31:00,78.3,49.9,30.26,NE,54,4.0,4.0,37,0.00,,---,0.00,VWS V14.01,2013-08-24 21:31:00,
2013-08-24 17:35:00,78.1,50.5,30.26,ENE,57,1.0,4.0,38,0.00,,---,0.00,VWS V14.01,2013-08-24 21:35:00,
2013-08-24 17:37:00,78.1,49.0,30.26,ENE,64,0.0,4.0,36,0.00,,---,0.00,VWS V14.01,2013-08-24 21:37:00,
2013-08-24 17:39:00,77.9,50.3,30.26,ENE,64,0.0,4.0,38,0.00,,---,0.00,VWS V14.01,2013-08-24 21:39:00,
2013-08-24 17:43:00,77.9,49.6,30.27,ENE,64,0.0,4.0,37,0.00,,---,0.00,VWS V14.01,2013-08-24 21:43:00,
2013-08-24 17:45:00,77.9,49.6,30.27,ENE,70,0.0,4.0,37,0.00,,---,0.00,VWS V14.01,2013-08-24 21:45:00,
2013-08-24 17:46:00,77.9,49.6,30.27,ENE,71,0.0,4.0,37,0.00,,---,0.00,VWS V14.01,2013-08-24 21:46:00,
2013-08-24 17:49:00,78.3,51.3,30.27,ENE,71,0.0,1.0,39,0.00,,---,0.00,VWS V14.01,2013-08-24 21:49:00,
2013-08-24 17:51:00,78.3,50.6,30.27,ENE,71,0.0,1.0,38,0.00,,---,0.00,VWS V14.01,2013-08-24 21:51:00,
2013-08-24 17:53:00,78.3,49.2,30.27,ENE,71,0.0,1.0,36,0.00,,---,0.00,VWS V14.01,2013-08-24 21:53:00,
2013-08-24 17:57:00,78.5,50.1,30.27,ENE,71,0.0,1.0,37,0.00,,---,0.00,VWS V14.01,2013-08-24 21:57:00,
2013-08-24 17:59:00,78.3,48.4,30.27,ENE,71,0.0,1.0,35,0.00,,---,0.00,VWS V14.01,2013-08-24 21:59:00,
2013-08-24 18:01:00,78.3,49.2,30.27,ENE,71,0.0,1.0,36,0.00,,---,0.00,VWS V14.01,2013-08-24 22:01:00,
2013-08-24 18:03:00,78.5,48.6,30.27,ENE,71,0.0,0.0,35,0.00,,---,0.00,VWS V14.01,2013-08-24 22:03:00,
2013-08-24 18:09:00,78.8,48.9,30.27,ENE,71,0.0,1.0,35,0.00,,---,0.00,VWS V14.01,2013-08-24 22:09:00,
2013-08-24 18:11:00,78.8,51.8,30.27,ENE,71,0.0,1.0,39,0.00,,---,0.00,VWS V14.01,2013-08-24 22:11:00,
2013-08-24 18:13:00,78.8,53.1,30.27,ENE,71,0.0,1.0,41,0.00,,---,0.00,VWS V14.01,2013-08-24 22:13:00,
2013-08-24 18:15:00,78.8,51.1,30.27,ENE,71,0.0,1.0,38,0.00,,---,0.00,VWS V14.01,2013-08-24 22:15:00,
2013-08-24 18:16:00,78.8,50.4,30.27,ENE,71,0.0,1.0,37,0.00,,---,0.00,VWS V14.01,2013-08-24 22:16:00,
2013-08-24 18:19:00,78.6,50.9,30.27,ENE,71,0.0,1.0,38,0.00,,---,0.00,VWS V14.01,2013-08-24 22:19:00,
2013-08-24 18:21:00,78.5,50.8,30.27,ENE,71,0.0,1.0,38,0.00,,---,0.00,VWS V14.01,2013-08-24 22:21:00,
2013-08-24 18:23:00,78.5,52.9,30.27,ENE,71,0.0,1.0,41,0.00,,---,0.00,VWS V14.01,2013-08-24 22:23:00,
2013-08-24 18:25:00,78.3,52.7,30.27,ENE,71,0.0,1.0,41,0.00,,---,0.00,VWS V14.01,2013-08-24 22:25:00,
2013-08-24 18:27:00,78.1,52.5,30.27,ENE,71,0.0,1.0,41,0.00,,---,0.00,VWS V14.01,2013-08-24 22:27:00,
2013-08-24 18:29:00,77.7,51.5,30.27,ENE,71,0.0,1.0,40,0.00,,---,0.00,VWS V14.01,2013-08-24 22:29:00,
2013-08-24 18:31:00,77.6,50.7,30.27,ENE,71,0.0,1.0,39,0.00,,---,0.00,VWS V14.01,2013-08-24 22:31:00,
2013-08-24 18:35:00,77.0,52.2,30.27,ENE,71,0.0,0.0,42,0.00,,---,0.00,VWS V14.01,2013-08-24 22:35:00,
2013-08-24 18:39:00,76.8,53.9,30.27,ENE,71,0.0,0.0,45,0.00,,---,0.00,VWS V14.01,2013-08-24 22:39:00,
2013-08-24 18:44:00,76.7,57.2,30.27,ENE,71,0.0,0.0,51,0.00,,---,0.00,VWS V14.01,2013-08-24 22:44:00,
2013-08-24 18:46:00,76.3,56.3,30.27,ENE,71,0.0,0.0,50,0.00,,---,0.00,VWS V14.01,2013-08-24 22:46:00,
2013-08-24 18:48:00,76.0,54.9,30.27,ENE,71,0.0,0.0,48,0.00,,---,0.00,VWS V14.01,2013-08-24 22:48:00,
2013-08-24 18:54:00,74.9,58.2,30.27,ENE,71,0.0,0.0,56,0.00,,---,0.00,VWS V14.01,2013-08-24 22:54:00,
2013-08-24 18:56:00,74.6,58.9,30.27,ENE,71,0.0,0.0,58,0.00,,---,0.00,VWS V14.01,2013-08-24 22:56:00,
2013-08-24 18:58:00,74.2,59.4,30.27,ENE,71,0.0,0.0,60,0.00,,---,0.00,VWS V14.01,2013-08-24 22:58:00,
2013-08-24 19:00:00,73.9,59.6,30.27,ENE,71,0.0,0.0,61,0.00,,---,0.00,VWS V14.01,2013-08-24 23:00:00,
2013-08-24 19:01:00,73.7,59.9,30.27,ENE,71,0.0,0.0,62,0.00,,---,0.00,VWS V14.01,2013-08-24 23:01:00,
2013-08-24 19:04:00,73.2,59.4,30.27,ENE,71,0.0,0.0,62,0.00,,---,0.00,VWS V14.01,2013-08-24 23:04:00,
2013-08-24 19:06:00,73.0,59.7,30.27,ENE,71,0.0,0.0,63,0.00,,---,0.00,VWS V14.01,2013-08-24 23:06:00,
2013-08-24 19:08:00,72.7,59.8,30.27,ENE,71,0.0,0.0,64,0.00,,---,0.00,VWS V14.01,2013-08-24 23:08:00,
2013-08-24 19:10:00,72.3,59.9,30.27,ENE,71,0.0,0.0,65,0.00,,---,0.00,VWS V14.01,2013-08-24 23:10:00,
2013-08-24 19:12:00,72.1,60.1,30.27,ENE,71,0.0,0.0,66,0.00,,---,0.00,VWS V14.01,2013-08-24 23:12:00,
2013-08-24 19:14:00,71.8,60.3,30.27,ENE,71,0.0,0.0,67,0.00,,---,0.00,VWS V14.01,2013-08-24 23:14:00,
2013-08-24 19:16:00,71.6,60.5,30.27,ENE,71,0.0,0.0,68,0.00,,---,0.00,VWS V14.01,2013-08-24 23:16:00,
2013-08-24 19:18:00,71.3,60.6,30.27,ENE,71,0.0,0.0,69,0.00,,---,0.00,VWS V14.01,2013-08-24 23:18:00,
2013-08-24 19:22:00,70.8,61.7,30.27,ENE,71,0.0,0.0,73,0.00,,---,0.00,VWS V14.01,2013-08-24 23:22:00,
2013-08-24 19:24:00,70.4,61.7,30.27,ENE,71,0.0,0.0,74,0.00,,---,0.00,VWS V14.01,2013-08-24 23:24:00,
2013-08-24 19:28:00,69.8,61.2,30.28,ENE,71,0.0,0.0,74,0.00,,---,0.00,VWS V14.01,2013-08-24 23:28:00,
2013-08-24 19:30:00,69.6,61.0,30.28,ENE,71,0.0,0.0,74,0.00,,---,0.00,VWS V14.01,2013-08-24 23:30:00,
2013-08-24 19:32:00,69.4,60.8,30.28,ENE,71,0.0,0.0,74,0.00,,---,0.00,VWS V14.01,2013-08-24 23:32:00,
2013-08-24 19:34:00,69.3,60.7,30.28,ENE,71,0.0,0.0,74,0.00,,---,0.00,VWS V14.01,2013-08-24 23:34:00,
2013-08-24 19:36:00,68.9,60.3,30.28,ENE,71,0.0,0.0,74,0.00,,---,0.00,VWS V14.01,2013-08-24 23:36:00,
2013-08-24 19:38:00,68.8,60.9,30.28,ENE,71,0.0,0.0,76,0.00,,---,0.00,VWS V14.01,2013-08-24 23:38:00,
2013-08-24 19:40:00,68.6,60.7,30.28,ENE,71,0.0,0.0,76,0.00,,---,0.00,VWS V14.01,2013-08-24 23:40:00,
2013-08-24 19:44:00,68.1,60.3,30.28,ENE,71,0.0,0.0,76,0.00,,---,0.00,VWS V14.01,2013-08-24 23:44:00,
2013-08-24 19:46:00,67.8,60.3,30.28,ENE,71,0.0,0.0,77,0.00,,---,0.00,VWS V14.01,2013-08-24 23:46:00,
2013-08-24 19:50:00,67.4,60.0,30.29,ENE,71,0.0,0.0,77,0.00,,---,0.00,VWS V14.01,2013-08-24 23:50:00,
2013-08-24 19:52:00,67.1,59.7,30.29,ENE,71,0.0,0.0,77,0.00,,---,0.00,VWS V14.01,2013-08-24 23:52:00,
2013-08-24 19:54:00,66.9,59.8,30.29,ENE,71,0.0,0.0,78,0.00,,---,0.00,VWS V14.01,2013-08-24 23:54:00,
2013-08-24 19:56:00,66.8,59.7,30.29,ENE,71,0.0,0.0,78,0.00,,---,0.00,VWS V14.01,2013-08-24 23:56:00,
2013-08-24 20:00:00,66.3,59.6,30.29,ENE,71,0.0,0.0,79,0.00,,---,0.00,VWS V14.01,2013-08-25 00:00:00,
2013-08-24 20:01:00,66.3,59.6,30.29,ENE,71,0.0,0.0,79,0.00,,---,0.00,VWS V14.01,2013-08-25 00:01:00,
2013-08-24 20:02:00,66.1,59.8,30.29,ENE,71,0.0,0.0,80,0.00,,---,0.00,VWS V14.01,2013-08-25 00:02:00,
2013-08-24 20:04:00,66.0,59.7,30.29,ENE,71,0.0,0.0,80,0.00,,---,0.00,VWS V14.01,2013-08-25 00:04:00,
2013-08-24 20:06:00,65.6,59.6,30.29,ENE,71,0.0,0.0,81,0.00,,---,0.00,VWS V14.01,2013-08-25 00:06:00,
2013-08-24 20:08:00,65.5,59.5,30.29,ENE,71,0.0,0.0,81,0.00,,---,0.00,VWS V14.01,2013-08-25 00:08:00,
2013-08-24 20:14:00,64.8,59.5,30.29,ENE,71,0.0,0.0,83,0.00,,---,0.00,VWS V14.01,2013-08-25 00:14:00,
2013-08-24 20:16:00,64.7,59.4,30.29,ENE,71,0.0,0.0,83,0.00,,---,0.00,VWS V14.01,2013-08-25 00:16:00,
2013-08-24 20:18:00,64.5,59.2,30.29,ENE,71,0.0,0.0,83,0.00,,---,0.00,VWS V14.01,2013-08-25 00:18:00,
2013-08-24 20:22:00,64.2,59.3,30.30,ENE,71,0.0,0.0,84,0.00,,---,0.00,VWS V14.01,2013-08-25 00:22:00,
2013-08-24 20:24:00,64.0,59.4,30.29,ENE,71,0.0,0.0,85,0.00,,---,0.00,VWS V14.01,2013-08-25 00:24:00,
2013-08-24 20:26:00,63.9,59.3,30.30,ENE,71,0.0,0.0,85,0.00,,---,0.00,VWS V14.01,2013-08-25 00:26:00,
2013-08-24 20:28:00,63.7,59.1,30.30,ENE,71,0.0,0.0,85,0.00,,---,0.00,VWS V14.01,2013-08-25 00:28:00,
2013-08-24 20:30:00,63.5,58.9,30.30,ENE,71,0.0,0.0,85,0.00,,---,0.00,VWS V14.01,2013-08-25 00:30:00,
2013-08-24 20:32:00,63.4,58.8,30.30,ENE,71,0.0,0.0,85,0.00,,---,0.00,VWS V14.01,2013-08-25 00:32:00,
2013-08-24 20:36:00,62.9,58.7,30.30,ENE,71,0.0,0.0,86,0.00,,---,0.00,VWS V14.01,2013-08-25 00:36:00,
2013-08-24 20:38:00,62.7,58.5,30.31,ENE,71,0.0,0.0,86,0.00,,---,0.00,VWS V14.01,2013-08-25 00:38:00,
2013-08-24 20:44:00,62.4,58.5,30.31,ENE,71,0.0,0.0,87,0.00,,---,0.00,VWS V14.01,2013-08-25 00:44:00,
2013-08-24 20:46:00,62.3,58.4,30.31,ENE,71,0.0,0.0,87,0.00,,---,0.00,VWS V14.01,2013-08-25 00:46:00,
2013-08-24 20:48:00,62.1,58.5,30.31,ENE,71,0.0,0.0,88,0.00,,---,0.00,VWS V14.01,2013-08-25 00:48:00,
2013-08-24 20:50:00,62.0,58.4,30.31,ENE,71,0.0,0.0,88,0.00,,---,0.00,VWS V14.01,2013-08-25 00:50:00,
2013-08-24 20:52:00,61.8,58.5,30.31,ENE,71,0.0,0.0,89,0.00,,---,0.00,VWS V14.01,2013-08-25 00:52:00,
2013-08-24 20:56:00,61.6,58.3,30.31,ENE,71,0.0,0.0,89,0.00,,---,0.00,VWS V14.01,2013-08-25 00:56:00,
2013-08-24 20:58:00,61.5,58.2,30.31,ENE,71,0.0,0.0,89,0.00,,---,0.00,VWS V14.01,2013-08-25 00:58:00,
2013-08-24 21:00:00,61.5,58.2,30.31,ENE,71,0.0,0.0,89,0.00,,---,0.00,VWS V14.01,2013-08-25 01:00:00,
2013-08-24 21:01:00,61.5,58.2,30.31,ENE,71,0.0,0.0,89,0.00,,---,0.00,VWS V14.01,2013-08-25 01:01:00,
2013-08-24 21:02:00,61.3,58.0,30.31,ENE,71,0.0,0.0,89,0.00,,---,0.00,VWS V14.01,2013-08-25 01:02:00,
2013-08-24 21:08:00,61.0,57.7,30.32,ENE,71,0.0,0.0,89,0.00,,---,0.00,VWS V14.01,2013-08-25 01:08:00,
2013-08-24 21:10:00,61.0,58.0,30.32,ENE,71,0.0,0.0,90,0.00,,---,0.00,VWS V14.01,2013-08-25 01:10:00,
2013-08-24 21:14:00,60.7,57.8,30.32,ENE,71,0.0,0.0,90,0.00,,---,0.00,VWS V14.01,2013-08-25 01:14:00,
2013-08-24 21:16:00,60.7,57.8,30.32,ENE,71,0.0,0.0,90,0.00,,---,0.00,VWS V14.01,2013-08-25 01:16:00,
2013-08-24 21:22:00,60.4,57.8,30.32,ENE,71,0.0,0.0,91,0.00,,---,0.00,VWS V14.01,2013-08-25 01:22:00,
2013-08-24 21:24:00,60.4,57.8,30.32,ENE,71,0.0,0.0,91,0.00,,---,0.00,VWS V14.01,2013-08-25 01:24:00,
2013-08-24 21:26:00,60.2,57.6,30.32,ENE,71,0.0,0.0,91,0.00,,---,0.00,VWS V14.01,2013-08-25 01:26:00,
2013-08-24 21:31:00,60.1,57.8,30.32,ENE,71,0.0,0.0,92,0.00,,---,0.00,VWS V14.01,2013-08-25 01:31:00,
2013-08-24 21:34:00,59.9,57.6,30.32,ENE,71,0.0,0.0,92,0.00,,---,0.00,VWS V14.01,2013-08-25 01:34:00,
2013-08-24 21:36:00,59.9,57.6,30.32,ENE,71,0.0,0.0,92,0.00,,---,0.00,VWS V14.01,2013-08-25 01:36:00,
2013-08-24 21:38:00,59.9,57.9,30.32,ENE,71,0.0,0.0,93,0.00,,---,0.00,VWS V14.01,2013-08-25 01:38:00,
2013-08-24 21:42:00,59.9,57.9,30.32,ENE,71,0.0,0.0,93,0.00,,---,0.00,VWS V14.01,2013-08-25 01:42:00,
2013-08-24 21:44:00,59.9,57.9,30.32,ENE,71,0.0,0.0,93,0.00,,---,0.00,VWS V14.01,2013-08-25 01:44:00,
2013-08-24 21:46:00,59.8,57.8,30.32,ENE,71,0.0,0.0,93,0.00,,---,0.00,VWS V14.01,2013-08-25 01:46:00,
2013-08-24 21:50:00,59.6,57.6,30.33,ENE,71,0.0,0.0,93,0.00,,---,0.00,VWS V14.01,2013-08-25 01:50:00,
2013-08-24 21:54:00,59.5,57.5,30.32,ENE,71,0.0,1.0,93,0.00,,---,0.00,VWS V14.01,2013-08-25 01:54:00,
2013-08-24 21:56:00,59.3,57.6,30.32,ENE,71,0.0,1.0,94,0.00,,---,0.00,VWS V14.01,2013-08-25 01:56:00,
2013-08-24 22:00:00,59.2,57.5,30.32,ENE,68,0.0,1.0,94,0.00,,---,0.00,VWS V14.01,2013-08-25 02:00:00,
2013-08-24 22:15:00,58.9,57.5,30.32,ENE,68,0.0,0.0,95,0.00,,---,0.00,VWS V14.01,2013-08-25 02:15:00,
2013-08-24 22:30:00,58.3,56.9,30.33,ENE,68,0.0,0.0,95,0.00,,---,0.00,VWS V14.01,2013-08-25 02:30:00,
2013-08-24 22:45:00,57.8,56.4,30.33,ENE,68,0.0,0.0,95,0.00,,---,0.00,VWS V14.01,2013-08-25 02:45:00,
2013-08-24 23:00:00,57.3,56.2,30.33,ENE,68,0.0,0.0,96,0.00,,---,0.00,VWS V14.01,2013-08-25 03:00:00,
2013-08-24 23:15:00,56.9,55.8,30.34,ENE,68,0.0,0.0,96,0.00,,---,0.00,VWS V14.01,2013-08-25 03:15:00,
2013-08-24 23:30:00,56.6,55.5,30.34,ENE,68,0.0,0.0,96,0.00,,---,0.00,VWS V14.01,2013-08-25 03:30:00,
2013-08-24 23:45:00,56.3,55.2,30.34,ENE,68,0.0,0.0,96,0.00,,---,0.00,VWS V14.01,2013-08-25 03:45:00,